Time,TemperatureF,DewpointF,PressureIn,WindDirection,WindDirectionDegrees,WindSpeedMPH,WindSpeedGustMPH,Humidity,HourlyPrecipIn,Conditions,Clouds,dailyrainin,SoftwareType,DateUTC
2013-10-17 00:01:00,30.4,24.7,27.62,ENE,68,0.0,0.4,79,0.00,,,0.00,WUHU216HW,2013-10-17 07:01:00,
2013-10-17 00:06:00,30.2,24.5,27.63,ENE,68,0.0,0.4,79,0.00,,,0.00,WUHU216HW,2013-10-17 07:06:00,
2013-10-17 00:11:00,30.1,24.3,27.63,ENE,68,0.0,0.0,79,0.00,,,0.00,WUHU216HW,2013-10-17 07:11:00,
2013-10-17 00:16:00,29.9,24.5,27.63,ENE,68,0.0,0.0,80,0.00,,,0.00,WUHU216HW,2013-10-17 07:16:00,
2013-10-17 00:21:00,29.9,24.1,27.63,ENE,68,0.0,0.0,79,0.00,,,0.00,WUHU216HW,2013-10-17 07:21:00,
2013-10-17 00:26:00,29.9,24.1,27.63,ENE,68,0.0,0.0,79,0.00,,,0.00,WUHU216HW,2013-10-17 07:26:00,
2013-10-17 00:31:00,29.9,24.1,27.63,ENE,68,0.0,0.0,79,0.00,,,0.00,WUHU216HW,2013-10-17 07:31:00,
2013-10-17 00:36:00,29.7,24.3,27.63,ENE,68,0.0,0.0,80,0.00,,,0.00,WUHU216HW,2013-10-17 07:36:00,
2013-10-17 00:41:00,29.9,24.1,27.63,ENE,68,0.0,0.0,79,0.00,,,0.00,WUHU216HW,2013-10-17 07:41:00,
2013-10-17 00:46:00,29.9,24.1,27.64,ENE,68,0.0,0.0,79,0.00,,,0.00,WUHU216HW,2013-10-17 07:46:00,
2013-10-17 00:51:00,29.5,24.4,27.64,ENE,68,0.2,0.4,81,0.00,,,0.00,WUHU216HW,2013-10-17 07:51:00,
2013-10-17 00:56:00,29.3,23.9,27.64,ENE,68,0.0,0.4,80,0.00,,,0.00,WUHU216HW,2013-10-17 07:56:00,
2013-10-17 01:01:00,29.2,23.8,27.64,ENE,68,0.0,0.2,80,0.00,,,0.00,WUHU216HW,2013-10-17 08:01:00,
2013-10-17 01:06:00,29.2,23.8,27.63,ENE,68,0.0,0.0,80,0.00,,,0.00,WUHU216HW,2013-10-17 08:06:00,
2013-10-17 01:08:00,29.2,23.8,27.63,ENE,68,0.0,0.0,80,0.00,,,0.00,WUHU216HW,2013-10-17 08:08:00,
2013-10-17 01:13:00,29.2,23.8,27.63,ENE,68,0.0,0.0,80,0.00,,,0.00,WUHU216HW,2013-10-17 08:13:00,
2013-10-17 01:18:00,29.0,23.6,27.63,ENE,68,0.0,0.0,80,0.00,,,0.00,WUHU216HW,2013-10-17 08:18:00,
2013-10-17 01:23:00,28.8,23.4,27.63,ENE,68,0.0,0.0,80,0.00,,,0.00,WUHU216HW,2013-10-17 08:23:00,
2013-10-17 01:28:00,28.8,23.4,27.63,ENE,68,0.0,0.0,80,0.00,,,0.00,WUHU216HW,2013-10-17 08:28:00,
2013-10-17 01:33:00,28.8,23.4,27.63,ENE,68,0.0,0.0,80,0.00,,,0.00,WUHU216HW,2013-10-17 08:33:00,
2013-10-17 01:38:00,28.6,23.5,27.62,ENE,68,0.0,0.0,81,0.00,,,0.00,WUHU216HW,2013-10-17 08:38:00,
2013-10-17 01:43:00,28.4,23.3,27.63,ENE,68,0.0,0.0,81,0.00,,,0.00,WUHU216HW,2013-10-17 08:43:00,
2013-10-17 01:48:00,28.4,23.3,27.62,ENE,68,0.0,0.0,81,0.00,,,0.00,WUHU216HW,2013-10-17 08:48:00,
2013-10-17 01:53:00,28.3,23.1,27.62,ENE,68,0.0,0.0,81,0.00,,,0.00,WUHU216HW,2013-10-17 08:53:00,
2013-10-17 01:58:00,28.3,23.8,27.62,ENE,68,0.0,0.0,83,0.00,,,0.00,WUHU216HW,2013-10-17 08:58:00,
2013-10-17 02:03:00,28.1,23.6,27.62,ENE,68,0.0,0.0,83,0.00,,,0.00,WUHU216HW,2013-10-17 09:03:00,
2013-10-17 02:08:00,28.1,23.2,27.62,ENE,68,0.0,0.0,82,0.00,,,0.00,WUHU216HW,2013-10-17 09:08:00,
2013-10-17 02:13:00,28.1,23.2,27.62,ENE,68,0.0,0.0,82,0.00,,,0.00,WUHU216HW,2013-10-17 09:13:00,
2013-10-17 02:18:00,28.1,23.2,27.62,ENE,68,0.0,0.0,82,0.00,,,0.00,WUHU216HW,2013-10-17 09:18:00,
2013-10-17 02:23:00,27.9,23.0,27.62,ENE,68,0.0,0.0,82,0.00,,,0.00,WUHU216HW,2013-10-17 09:23:00,
2013-10-17 02:28:00,27.9,23.0,27.62,ENE,68,0.0,0.0,82,0.00,,,0.00,WUHU216HW,2013-10-17 09:28:00,
2013-10-17 02:33:00,27.9,23.4,27.62,ENE,68,0.0,0.0,83,0.00,,,0.00,WUHU216HW,2013-10-17 09:33:00,
2013-10-17 02:38:00,27.7,22.9,27.62,ENE,68,0.0,0.0,82,0.00,,,0.00,WUHU216HW,2013-10-17 09:38:00,
2013-10-17 02:43:00,27.9,23.0,27.62,ENE,68,0.0,0.0,82,0.00,,,0.00,WUHU216HW,2013-10-17 09:43:00,
2013-10-17 02:48:00,27.9,23.0,27.62,ENE,68,0.0,0.0,82,0.00,,,0.00,WUHU216HW,2013-10-17 09:48:00,
2013-10-17 02:53:00,27.9,23.0,27.62,ENE,68,0.0,0.0,82,0.00,,,0.00,WUHU216HW,2013-10-17 09:53:00,
2013-10-17 02:58:00,27.9,23.4,27.62,ENE,68,0.0,0.0,83,0.00,,,0.00,WUHU216HW,2013-10-17 09:58:00,
2013-10-17 03:03:00,28.1,23.6,27.62,ENE,68,0.0,0.0,83,0.00,,,0.00,WUHU216HW,2013-10-17 10:03:00,
2013-10-17 03:08:00,28.3,23.8,27.62,ESE,113,0.4,0.7,83,0.00,,,0.00,WUHU216HW,2013-10-17 10:08:00,
2013-10-17 03:13:00,28.4,24.0,27.62,ESE,113,0.0,0.7,83,0.00,,,0.00,WUHU216HW,2013-10-17 10:13:00,
2013-10-17 03:18:00,28.4,24.0,27.62,ESE,113,0.0,0.4,83,0.00,,,0.00,WUHU216HW,2013-10-17 10:18:00,
2013-10-17 03:23:00,28.6,24.1,27.62,ESE,113,0.0,0.0,83,0.00,,,0.00,WUHU216HW,2013-10-17 10:23:00,
2013-10-17 03:28:00,28.8,24.3,27.62,ESE,113,0.0,0.0,83,0.00,,,0.00,WUHU216HW,2013-10-17 10:28:00,
2013-10-17 03:33:00,28.8,24.3,27.62,ESE,113,0.0,0.0,83,0.00,,,0.00,WUHU216HW,2013-10-17 10:33:00,
2013-10-17 03:38:00,29.0,24.8,27.62,ESE,113,0.0,0.0,84,0.00,,,0.00,WUHU216HW,2013-10-17 10:38:00,
2013-10-17 03:43:00,29.2,24.7,27.62,ESE,113,0.0,0.0,83,0.00,,,0.00,WUHU216HW,2013-10-17 10:43:00,
2013-10-17 03:48:00,29.3,25.1,27.62,WSW,248,0.4,0.7,84,0.00,,,0.00,WUHU216HW,2013-10-17 10:48:00,
2013-10-17 03:53:00,29.5,25.0,27.63,WSW,248,0.0,0.7,83,0.00,,,0.00,WUHU216HW,2013-10-17 10:53:00,
2013-10-17 03:58:00,29.7,25.2,27.63,WSW,248,0.0,0.4,83,0.00,,,0.00,WUHU216HW,2013-10-17 10:58:00,
2013-10-17 04:03:00,29.9,25.7,27.63,SSE,158,0.0,0.0,84,0.00,,,0.00,WUHU216HW,2013-10-17 11:03:00,
2013-10-17 04:08:00,29.9,25.4,27.63,SSE,158,0.0,0.0,83,0.00,,,0.00,WUHU216HW,2013-10-17 11:08:00,
2013-10-17 04:13:00,29.9,25.4,27.63,SSE,158,0.0,0.0,83,0.00,,,0.00,WUHU216HW,2013-10-17 11:13:00,
2013-10-17 04:18:00,30.1,25.6,27.63,SSE,158,0.0,0.0,83,0.00,,,0.00,WUHU216HW,2013-10-17 11:18:00,
2013-10-17 04:23:00,30.2,25.8,27.63,SSE,158,0.0,0.0,83,0.00,,,0.00,WUHU216HW,2013-10-17 11:23:00,
2013-10-17 04:28:00,30.2,25.8,27.63,SSE,158,0.0,0.0,83,0.00,,,0.00,WUHU216HW,2013-10-17 11:28:00,
2013-10-17 04:33:00,30.2,25.8,27.63,SSE,158,0.0,0.0,83,0.00,,,0.00,WUHU216HW,2013-10-17 11:33:00,
2013-10-17 04:38:00,30.2,25.8,27.63,SSE,158,0.0,0.0,83,0.00,,,0.00,WUHU216HW,2013-10-17 11:38:00,
2013-10-17 04:43:00,30.2,25.4,27.63,SW,225,0.0,0.0,82,0.00,,,0.00,WUHU216HW,2013-10-17 11:43:00,
2013-10-17 04:48:00,30.1,25.2,27.63,SW,225,0.0,0.0,82,0.00,,,0.00,WUHU216HW,2013-10-17 11:48:00,
2013-10-17 04:53:00,30.1,25.2,27.63,SW,225,0.0,0.0,82,0.00,,,0.00,WUHU216HW,2013-10-17 11:53:00,
2013-10-17 04:58:00,29.9,25.0,27.64,SW,225,0.0,0.0,82,0.00,,,0.00,WUHU216HW,2013-10-17 11:58:00,
2013-10-17 05:03:00,29.9,25.0,27.64,SW,225,0.0,0.0,82,0.00,,,0.00,WUHU216HW,2013-10-17 12:03:00,
2013-10-17 05:08:00,29.9,25.0,27.64,SW,225,0.0,0.0,82,0.00,,,0.00,WUHU216HW,2013-10-17 12:08:00,
2013-10-17 05:13:00,29.9,25.4,27.64,SE,135,0.0,0.0,83,0.00,,,0.00,WUHU216HW,2013-10-17 12:13:00,
2013-10-17 05:18:00,29.9,25.4,27.64,SE,135,0.0,0.0,83,0.00,,,0.00,WUHU216HW,2013-10-17 12:18:00,
2013-10-17 05:23:00,30.1,25.6,27.64,SE,135,0.0,0.2,83,0.00,,,0.00,WUHU216HW,2013-10-17 12:23:00,
2013-10-17 05:28:00,30.2,25.8,27.64,ESE,113,0.0,0.4,83,0.00,,,0.00,WUHU216HW,2013-10-17 12:28:00,
2013-10-17 05:33:00,30.2,25.8,27.64,ESE,113,0.0,0.4,83,0.00,,,0.00,WUHU216HW,2013-10-17 12:33:00,
2013-10-17 05:38:00,30.1,25.6,27.64,SW,225,0.0,0.4,83,0.00,,,0.00,WUHU216HW,2013-10-17 12:38:00,
2013-10-17 05:43:00,29.9,25.4,27.64,SW,225,0.0,0.4,83,0.00,,,0.00,WUHU216HW,2013-10-17 12:43:00,
2013-10-17 05:48:00,29.7,25.2,27.64,SW,225,0.0,0.0,83,0.00,,,0.00,WUHU216HW,2013-10-17 12:48:00,
2013-10-17 05:53:00,29.5,25.0,27.64,SSW,203,0.0,0.0,83,0.00,,,0.00,WUHU216HW,2013-10-17 12:53:00,
2013-10-17 05:58:00,29.5,25.0,27.64,South,180,0.0,0.0,83,0.00,,,0.00,WUHU216HW,2013-10-17 12:58:00,
2013-10-17 06:03:00,29.2,24.7,27.64,SSE,158,0.0,0.0,83,0.00,,,0.00,WUHU216HW,2013-10-17 13:03:00,
2013-10-17 06:08:00,29.2,24.7,27.64,SSE,158,0.0,0.0,83,0.00,,,0.00,WUHU216HW,2013-10-17 13:08:00,
2013-10-17 06:13:00,28.8,24.3,27.64,SSE,158,0.0,0.0,83,0.00,,,0.00,WUHU216HW,2013-10-17 13:13:00,
2013-10-17 06:18:00,28.8,24.3,27.64,SSE,158,0.0,0.0,83,0.00,,,0.00,WUHU216HW,2013-10-17 13:18:00,
2013-10-17 06:23:00,28.6,24.1,27.64,SSE,158,0.0,0.0,83,0.00,,,0.00,WUHU216HW,2013-10-17 13:23:00,
2013-10-17 06:28:00,28.6,24.1,27.64,SSE,158,0.0,0.0,83,0.00,,,0.00,WUHU216HW,2013-10-17 13:28:00,
2013-10-17 06:33:00,28.4,24.0,27.64,SSE,158,0.0,0.0,83,0.00,,,0.00,WUHU216HW,2013-10-17 13:33:00,
2013-10-17 06:38:00,28.4,24.0,27.64,SSE,158,0.0,0.0,83,0.00,,,0.00,WUHU216HW,2013-10-17 13:38:00,
2013-10-17 06:43:00,28.4,24.0,27.64,SSE,158,0.0,0.0,83,0.00,,,0.00,WUHU216HW,2013-10-17 13:43:00,
2013-10-17 06:48:00,28.4,24.0,27.64,SSE,158,0.0,0.0,83,0.00,,,0.00,WUHU216HW,2013-10-17 13:48:00,
2013-10-17 06:53:00,28.3,23.8,27.65,SSE,158,0.0,0.0,83,0.00,,,0.00,WUHU216HW,2013-10-17 13:53:00,
2013-10-17 06:58:00,28.1,23.6,27.65,SSE,158,0.0,0.0,83,0.00,,,0.00,WUHU216HW,2013-10-17 13:58:00,
2013-10-17 07:03:00,27.7,23.2,27.65,SSE,158,0.0,0.0,83,0.00,,,0.00,WUHU216HW,2013-10-17 14:03:00,
2013-10-17 07:08:00,27.7,23.2,27.65,SSE,158,0.0,0.0,83,0.00,,,0.00,WUHU216HW,2013-10-17 14:08:00,
2013-10-17 07:13:00,27.5,23.1,27.66,SSE,158,0.0,0.0,83,0.00,,,0.00,WUHU216HW,2013-10-17 14:13:00,
2013-10-17 07:18:00,27.5,23.1,27.66,SSE,158,0.0,0.0,83,0.00,,,0.00,WUHU216HW,2013-10-17 14:18:00,
2013-10-17 07:23:00,27.7,23.2,27.66,SSE,158,0.0,0.0,83,0.00,,,0.00,WUHU216HW,2013-10-17 14:23:00,
2013-10-17 07:28:00,27.7,23.2,27.66,SSE,158,0.0,0.0,83,0.00,,,0.00,WUHU216HW,2013-10-17 14:28:00,
2013-10-17 07:33:00,27.7,23.2,27.66,SSE,158,0.0,0.0,83,0.00,,,0.00,WUHU216HW,2013-10-17 14:33:00,
2013-10-17 07:38:00,27.7,23.2,27.66,SE,135,0.2,0.2,83,0.00,,,0.00,WUHU216HW,2013-10-17 14:38:00,
2013-10-17 07:43:00,27.7,23.2,27.66,SE,135,0.0,0.2,83,0.00,,,0.00,WUHU216HW,2013-10-17 14:43:00,
2013-10-17 07:48:00,27.7,23.2,27.66,SE,135,0.0,0.0,83,0.00,,,0.00,WUHU216HW,2013-10-17 14:48:00,
2013-10-17 07:53:00,27.7,23.2,27.66,SE,135,0.0,0.0,83,0.00,,,0.00,WUHU216HW,2013-10-17 14:53:00,
2013-10-17 07:58:00,27.7,23.2,27.66,SE,135,0.0,0.0,83,0.00,,,0.00,WUHU216HW,2013-10-17 14:58:00,
2013-10-17 08:03:00,27.9,23.4,27.67,SE,135,0.0,0.0,83,0.00,,,0.00,WUHU216HW,2013-10-17 15:03:00,
2013-10-17 08:08:00,28.1,23.6,27.67,SE,135,0.0,0.0,83,0.00,,,0.00,WUHU216HW,2013-10-17 15:08:00,
2013-10-17 08:13:00,28.1,23.6,27.67,SE,135,0.0,0.0,83,0.00,,,0.00,WUHU216HW,2013-10-17 15:13:00,
2013-10-17 08:18:00,28.1,23.6,27.67,ESE,113,0.0,0.0,83,0.00,,,0.00,WUHU216HW,2013-10-17 15:18:00,
2013-10-17 08:23:00,28.3,23.8,27.67,ESE,113,0.0,0.0,83,0.00,,,0.00,WUHU216HW,2013-10-17 15:23:00,
2013-10-17 08:28:00,28.4,24.2,27.67,ESE,113,0.0,0.0,84,0.00,,,0.00,WUHU216HW,2013-10-17 15:28:00,
2013-10-17 08:33:00,28.6,24.4,27.68,ESE,113,0.0,0.0,84,0.00,,,0.00,WUHU216HW,2013-10-17 15:33:00,
2013-10-17 08:38:00,29.0,24.8,27.68,East,90,0.0,0.0,84,0.00,,,0.00,WUHU216HW,2013-10-17 15:38:00,
2013-10-17 08:43:00,29.2,24.9,27.68,East,90,0.0,0.2,84,0.00,,,0.00,WUHU216HW,2013-10-17 15:43:00,
2013-10-17 08:48:00,29.5,25.6,27.68,East,90,0.0,0.2,85,0.00,,,0.00,WUHU216HW,2013-10-17 15:48:00,
2013-10-17 08:53:00,29.9,25.9,27.68,East,90,0.0,0.0,85,0.00,,,0.00,WUHU216HW,2013-10-17 15:53:00,
2013-10-17 08:58:00,30.6,26.6,27.68,NE,45,0.0,0.4,85,0.00,,,0.00,WUHU216HW,2013-10-17 15:58:00,
2013-10-17 09:03:00,31.0,27.0,27.68,NE,45,0.0,0.4,85,0.00,,,0.00,WUHU216HW,2013-10-17 16:03:00,
2013-10-17 09:08:00,31.3,27.6,27.68,NE,45,0.0,0.4,86,0.00,,,0.00,WUHU216HW,2013-10-17 16:08:00,
2013-10-17 09:13:00,32.0,28.1,27.68,NW,315,0.0,0.4,85,0.00,,,0.00,WUHU216HW,2013-10-17 16:13:00,
2013-10-17 09:18:00,32.9,29.2,27.68,NE,45,0.0,0.9,86,0.00,,,0.00,WUHU216HW,2013-10-17 16:18:00,
2013-10-17 09:23:00,33.8,30.0,27.67,NE,45,0.0,0.9,86,0.00,,,0.00,WUHU216HW,2013-10-17 16:23:00,
2013-10-17 09:28:00,35.3,32.1,27.67,ENE,68,0.4,1.8,88,0.00,,,0.00,WUHU216HW,2013-10-17 16:28:00,
2013-10-17 09:33:00,36.9,33.9,27.68,ESE,113,1.3,3.4,89,0.00,,,0.00,WUHU216HW,2013-10-17 16:33:00,
2013-10-17 09:38:00,38.5,35.3,27.68,North,0,0.4,3.4,88,0.00,,,0.00,WUHU216HW,2013-10-17 16:38:00,
2013-10-17 09:43:00,40.1,36.3,27.68,SSE,158,1.6,3.4,86,0.00,,,0.00,WUHU216HW,2013-10-17 16:43:00,
2013-10-17 09:48:00,41.2,36.1,27.68,ESE,113,1.8,2.5,82,0.00,,,0.00,WUHU216HW,2013-10-17 16:48:00,
2013-10-17 09:53:00,41.8,36.3,27.68,WSW,248,1.1,2.5,81,0.00,,,0.00,WUHU216HW,2013-10-17 16:53:00,
2013-10-17 09:58:00,42.1,36.6,27.69,WSW,248,0.7,2.5,81,0.00,,,0.00,WUHU216HW,2013-10-17 16:58:00,
2013-10-17 10:03:00,42.5,36.4,27.69,ESE,113,0.4,2.7,79,0.00,,,0.00,WUHU216HW,2013-10-17 17:03:00,
2013-10-17 10:08:00,42.8,36.7,27.69,NNE,23,1.6,2.9,79,0.00,,,0.00,WUHU216HW,2013-10-17 17:08:00,
2013-10-17 10:13:00,43.7,37.0,27.69,NNW,338,0.9,2.9,77,0.00,,,0.00,WUHU216HW,2013-10-17 17:13:00,
2013-10-17 10:18:00,44.6,37.9,27.69,NNE,23,0.4,3.4,77,0.00,,,0.00,WUHU216HW,2013-10-17 17:18:00,
2013-10-17 10:23:00,45.5,38.1,27.69,NNE,23,0.4,3.4,75,0.00,,,0.00,WUHU216HW,2013-10-17 17:23:00,
2013-10-17 10:28:00,46.4,39.0,27.69,South,180,1.8,3.1,75,0.00,,,0.00,WUHU216HW,2013-10-17 17:28:00,
2013-10-17 10:33:00,46.8,38.3,27.69,SE,135,2.0,2.0,72,0.00,,,0.00,WUHU216HW,2013-10-17 17:33:00,
2013-10-17 10:38:00,47.2,38.3,27.69,NNE,23,0.2,2.2,71,0.00,,,0.00,WUHU216HW,2013-10-17 17:38:00,
2013-10-17 10:43:00,47.7,38.0,27.69,NNE,23,1.8,2.9,69,0.00,,,0.00,WUHU216HW,2013-10-17 17:43:00,
2013-10-17 10:48:00,48.1,38.0,27.70,SW,225,0.4,2.9,68,0.00,,,0.00,WUHU216HW,2013-10-17 17:48:00,
2013-10-17 10:53:00,48.8,39.1,27.70,NNE,23,0.7,2.5,69,0.00,,,0.00,WUHU216HW,2013-10-17 17:53:00,
2013-10-17 10:58:00,49.5,39.3,27.70,West,270,0.4,1.8,68,0.00,,,0.00,WUHU216HW,2013-10-17 17:58:00,
2013-10-17 11:03:00,50.0,38.4,27.70,SE,135,2.2,3.4,64,0.00,,,0.00,WUHU216HW,2013-10-17 18:03:00,
2013-10-17 11:08:00,50.0,39.1,27.69,NE,45,1.1,3.4,66,0.00,,,0.00,WUHU216HW,2013-10-17 18:08:00,
2013-10-17 11:13:00,50.6,39.6,27.70,East,90,0.9,2.2,66,0.00,,,0.00,WUHU216HW,2013-10-17 18:13:00,
2013-10-17 11:18:00,50.9,39.5,27.69,WSW,248,1.8,2.0,65,0.00,,,0.00,WUHU216HW,2013-10-17 18:18:00,
2013-10-17 11:23:00,51.8,40.0,27.69,WNW,293,0.9,3.4,64,0.00,,,0.00,WUHU216HW,2013-10-17 18:23:00,
2013-10-17 11:28:00,52.4,40.2,27.70,WSW,248,0.4,3.4,63,0.00,,,0.00,WUHU216HW,2013-10-17 18:28:00,
2013-10-17 11:33:00,52.9,40.6,27.70,West,270,0.7,2.5,63,0.00,,,0.00,WUHU216HW,2013-10-17 18:33:00,
2013-10-17 11:38:00,53.5,40.3,27.70,East,90,0.4,2.5,61,0.00,,,0.00,WUHU216HW,2013-10-17 18:38:00,
2013-10-17 11:43:00,53.6,40.1,27.70,SSE,158,2.5,2.9,60,0.00,,,0.00,WUHU216HW,2013-10-17 18:43:00,
2013-10-17 11:48:00,53.1,40.0,27.70,SSW,203,1.3,2.9,61,0.00,,,0.00,WUHU216HW,2013-10-17 18:48:00,
2013-10-17 11:53:00,53.3,40.1,27.70,West,270,1.6,2.7,61,0.00,,,0.00,WUHU216HW,2013-10-17 18:53:00,
2013-10-17 11:58:00,53.3,40.1,27.69,WSW,248,1.3,3.4,61,0.00,,,0.00,WUHU216HW,2013-10-17 18:58:00,
2013-10-17 12:03:00,53.6,40.5,27.69,West,270,0.4,3.4,61,0.00,,,0.00,WUHU216HW,2013-10-17 19:03:00,
2013-10-17 12:08:00,53.6,39.7,27.69,West,270,1.3,2.2,59,0.00,,,0.00,WUHU216HW,2013-10-17 19:08:00,
2013-10-17 12:13:00,54.0,40.0,27.69,ESE,113,1.1,2.5,59,0.00,,,0.00,WUHU216HW,2013-10-17 19:13:00,
2013-10-17 12:18:00,53.6,40.1,27.69,ENE,68,1.8,2.5,60,0.00,,,0.00,WUHU216HW,2013-10-17 19:18:00,
2013-10-17 12:23:00,53.8,39.9,27.69,North,0,0.9,3.8,59,0.00,,,0.00,WUHU216HW,2013-10-17 19:23:00,
2013-10-17 12:28:00,53.5,39.5,27.69,East,90,0.4,3.8,59,0.00,,,0.00,WUHU216HW,2013-10-17 19:28:00,
2013-10-17 12:31:00,53.6,40.1,27.69,North,0,0.7,3.8,60,0.00,,,0.00,WUHU216HW,2013-10-17 19:31:00,
2013-10-17 12:36:00,53.8,39.9,27.69,North,0,1.3,2.5,59,0.00,,,0.00,WUHU216HW,2013-10-17 19:36:00,
2013-10-17 12:41:00,54.0,40.0,27.69,NNW,338,0.4,2.5,59,0.00,,,0.00,WUHU216HW,2013-10-17 19:41:00,
2013-10-17 12:46:00,54.0,39.5,27.69,North,0,0.2,2.7,58,0.00,,,0.00,WUHU216HW,2013-10-17 19:46:00,
2013-10-17 12:51:00,53.8,39.3,27.69,ESE,113,1.8,2.7,58,0.00,,,0.00,WUHU216HW,2013-10-17 19:51:00,
2013-10-17 12:56:00,54.0,40.0,27.68,NE,45,1.8,3.1,59,0.00,,,0.00,WUHU216HW,2013-10-17 19:56:00,
2013-10-17 13:01:00,54.4,39.9,27.68,SE,135,0.2,3.1,58,0.00,,,0.00,WUHU216HW,2013-10-17 20:01:00,
2013-10-17 13:06:00,55.1,41.0,27.68,WSW,248,0.9,3.1,59,0.00,,,0.00,WUHU216HW,2013-10-17 20:06:00,
2013-10-17 13:11:00,55.6,40.5,27.68,NE,45,3.1,3.1,57,0.00,,,0.00,WUHU216HW,2013-10-17 20:11:00,
2013-10-17 13:16:00,55.4,39.9,27.68,NE,45,2.5,3.4,56,0.00,,,0.00,WUHU216HW,2013-10-17 20:16:00,
2013-10-17 13:21:00,55.6,40.5,27.68,NNW,338,1.6,3.4,57,0.00,,,0.00,WUHU216HW,2013-10-17 20:21:00,
2013-10-17 13:26:00,55.8,39.8,27.68,East,90,1.3,2.9,55,0.00,,,0.00,WUHU216HW,2013-10-17 20:26:00,
2013-10-17 13:31:00,55.8,40.2,27.68,NW,315,2.7,3.6,56,0.00,,,0.00,WUHU216HW,2013-10-17 20:31:00,
2013-10-17 13:36:00,56.5,40.5,27.68,SSW,203,0.0,3.6,55,0.00,,,0.00,WUHU216HW,2013-10-17 20:36:00,
2013-10-17 13:41:00,56.7,40.7,27.68,SE,135,0.9,2.7,55,0.00,,,0.00,WUHU216HW,2013-10-17 20:41:00,
2013-10-17 13:46:00,56.5,39.1,27.68,SE,135,2.7,3.4,52,0.00,,,0.00,WUHU216HW,2013-10-17 20:46:00,
2013-10-17 13:51:00,55.3,38.8,27.68,WNW,293,1.1,3.6,54,0.00,,,0.00,WUHU216HW,2013-10-17 20:51:00,
2013-10-17 13:56:00,54.7,38.8,27.68,SE,135,1.1,3.6,55,0.00,,,0.00,WUHU216HW,2013-10-17 20:56:00,
2013-10-17 14:01:00,54.7,39.7,27.68,NW,315,0.4,3.4,57,0.00,,,0.00,WUHU216HW,2013-10-17 21:01:00,
2013-10-17 14:06:00,54.9,39.4,27.68,ESE,113,0.2,3.4,56,0.00,,,0.00,WUHU216HW,2013-10-17 21:06:00,
2013-10-17 14:11:00,55.6,40.1,27.68,East,90,0.0,2.5,56,0.00,,,0.00,WUHU216HW,2013-10-17 21:11:00,
2013-10-17 14:16:00,56.3,40.3,27.68,SW,225,1.1,1.8,55,0.00,,,0.00,WUHU216HW,2013-10-17 21:16:00,
2013-10-17 14:21:00,56.3,40.3,27.68,WSW,248,1.6,2.5,55,0.00,,,0.00,WUHU216HW,2013-10-17 21:21:00,
2013-10-17 14:26:00,56.2,39.7,27.68,SSW,203,0.4,3.1,54,0.00,,,0.00,WUHU216HW,2013-10-17 21:26:00,
2013-10-17 14:30:00,55.8,40.2,27.68,South,180,0.7,3.1,56,0.00,,,0.00,WUHU216HW,2013-10-17 21:30:00,
2013-10-17 14:35:00,56.0,40.4,27.68,North,0,0.7,2.9,56,0.00,,,0.00,WUHU216HW,2013-10-17 21:35:00,
2013-10-17 14:40:00,55.6,40.1,27.68,WSW,248,0.4,2.2,56,0.00,,,0.00,WUHU216HW,2013-10-17 21:40:00,
2013-10-17 14:45:00,55.4,40.3,27.68,NNW,338,0.9,2.2,57,0.00,,,0.00,WUHU216HW,2013-10-17 21:45:00,
2013-10-17 14:50:00,55.4,39.9,27.68,NE,45,2.2,2.2,56,0.00,,,0.00,WUHU216HW,2013-10-17 21:50:00,
2013-10-17 14:55:00,55.4,39.9,27.68,NNE,23,0.4,2.7,56,0.00,,,0.00,WUHU216HW,2013-10-17 21:55:00,
2013-10-17 15:00:00,55.8,40.2,27.68,SSW,203,0.4,2.7,56,0.00,,,0.00,WUHU216HW,2013-10-17 22:00:00,
2013-10-17 15:06:00,55.8,39.8,27.68,ENE,68,0.9,1.8,55,0.00,,,0.00,WUHU216HW,2013-10-17 22:06:00,
2013-10-17 15:10:00,55.6,39.6,27.68,West,270,0.0,1.8,55,0.00,,,0.00,WUHU216HW,2013-10-17 22:10:00,
2013-10-17 15:16:00,55.8,39.3,27.68,East,90,0.0,1.8,54,0.00,,,0.00,WUHU216HW,2013-10-17 22:16:00,
2013-10-17 15:21:00,56.2,39.3,27.68,SSE,158,0.4,2.0,53,0.00,,,0.00,WUHU216HW,2013-10-17 22:21:00,
2013-10-17 15:26:00,57.1,41.0,27.68,NE,45,0.0,2.0,55,0.00,,,0.00,WUHU216HW,2013-10-17 22:26:00,
2013-10-17 15:31:00,58.0,41.9,27.68,WSW,248,0.2,0.7,55,0.00,,,0.00,WUHU216HW,2013-10-17 22:31:00,
2013-10-17 15:36:00,58.1,40.1,27.68,WSW,248,3.4,3.4,51,0.00,,,0.00,WUHU216HW,2013-10-17 22:36:00,
2013-10-17 15:41:00,58.0,41.0,27.68,WSW,248,1.1,3.4,53,0.00,,,0.00,WUHU216HW,2013-10-17 22:41:00,
2013-10-17 15:46:00,58.3,41.8,27.68,West,270,1.1,3.4,54,0.00,,,0.00,WUHU216HW,2013-10-17 22:46:00,
2013-10-17 15:51:00,58.3,41.2,27.68,SSW,203,0.2,2.5,53,0.00,,,0.00,WUHU216HW,2013-10-17 22:51:00,
2013-10-17 15:56:00,57.8,40.8,27.68,NW,315,1.1,2.0,53,0.00,,,0.00,WUHU216HW,2013-10-17 22:56:00,
2013-10-17 16:01:00,57.1,39.6,27.68,South,180,0.0,1.8,52,0.00,,,0.00,WUHU216HW,2013-10-17 23:01:00,
2013-10-17 16:06:00,56.7,40.2,27.68,West,270,0.0,2.7,54,0.00,,,0.00,WUHU216HW,2013-10-17 23:06:00,
2013-10-17 16:11:00,56.7,39.8,27.68,NW,315,0.7,2.7,53,0.00,,,0.00,WUHU216HW,2013-10-17 23:11:00,
2013-10-17 16:16:00,56.5,39.6,27.68,NNW,338,0.0,2.5,53,0.00,,,0.00,WUHU216HW,2013-10-17 23:16:00,
2013-10-17 16:21:00,56.5,39.6,27.68,North,0,0.0,2.5,53,0.00,,,0.00,WUHU216HW,2013-10-17 23:21:00,
2013-10-17 16:26:00,56.2,39.7,27.68,ESE,113,0.0,1.3,54,0.00,,,0.00,WUHU216HW,2013-10-17 23:26:00,
2013-10-17 16:31:00,55.8,38.9,27.68,North,0,0.0,0.9,53,0.00,,,0.00,WUHU216HW,2013-10-17 23:31:00,
2013-10-17 16:36:00,55.6,39.2,27.68,WSW,248,0.0,1.1,54,0.00,,,0.00,WUHU216HW,2013-10-17 23:36:00,
2013-10-17 16:41:00,55.4,39.0,27.68,South,180,0.0,1.1,54,0.00,,,0.00,WUHU216HW,2013-10-17 23:41:00,
2013-10-17 16:46:00,55.1,39.1,27.68,WSW,248,0.7,1.1,55,0.00,,,0.00,WUHU216HW,2013-10-17 23:46:00,
2013-10-17 16:51:00,54.9,39.0,27.68,WNW,293,0.2,1.1,55,0.00,,,0.00,WUHU216HW,2013-10-17 23:51:00,
2013-10-17 16:56:00,54.7,38.8,27.68,North,0,0.0,1.1,55,0.00,,,0.00,WUHU216HW,2013-10-17 23:56:00,
2013-10-17 17:01:00,54.5,39.1,27.68,NNW,338,0.0,0.2,56,0.00,,,0.00,WUHU216HW,2013-10-18 00:01:00,
2013-10-17 17:06:00,54.7,39.2,27.69,NNW,338,0.0,0.0,56,0.00,,,0.00,WUHU216HW,2013-10-18 00:06:00,
2013-10-17 17:11:00,54.7,39.2,27.68,NNW,338,0.0,0.0,56,0.00,,,0.00,WUHU216HW,2013-10-18 00:11:00,
2013-10-17 17:16:00,54.7,39.2,27.68,NNW,338,0.0,0.0,56,0.00,,,0.00,WUHU216HW,2013-10-18 00:16:00,
2013-10-17 17:21:00,54.5,39.1,27.69,NNW,338,0.2,0.2,56,0.00,,,0.00,WUHU216HW,2013-10-18 00:21:00,
2013-10-17 17:26:00,54.4,38.9,27.69,North,0,0.0,0.4,56,0.00,,,0.00,WUHU216HW,2013-10-18 00:26:00,
2013-10-17 17:31:00,54.0,38.6,27.69,North,0,0.0,0.4,56,0.00,,,0.00,WUHU216HW,2013-10-18 00:31:00,
2013-10-17 17:36:00,53.5,38.1,27.69,North,0,0.0,0.0,56,0.00,,,0.00,WUHU216HW,2013-10-18 00:36:00,
2013-10-17 17:41:00,52.9,38.1,27.69,North,0,0.0,0.0,57,0.00,,,0.00,WUHU216HW,2013-10-18 00:41:00,
2013-10-17 17:46:00,52.2,37.8,27.69,North,0,0.0,0.0,58,0.00,,,0.00,WUHU216HW,2013-10-18 00:46:00,
2013-10-17 17:51:00,51.5,37.1,27.69,North,0,0.0,0.0,58,0.00,,,0.00,WUHU216HW,2013-10-18 00:51:00,
2013-10-17 17:56:00,50.9,37.1,27.69,North,0,0.0,0.0,59,0.00,,,0.00,WUHU216HW,2013-10-18 00:56:00,
2013-10-17 18:01:00,50.2,36.5,27.69,North,0,0.0,0.0,59,0.00,,,0.00,WUHU216HW,2013-10-18 01:01:00,
2013-10-17 18:06:00,49.7,36.4,27.69,North,0,0.0,0.0,60,0.00,,,0.00,WUHU216HW,2013-10-18 01:06:00,
2013-10-17 18:11:00,49.0,36.1,27.69,North,0,0.0,0.0,61,0.00,,,0.00,WUHU216HW,2013-10-18 01:11:00,
2013-10-17 18:16:00,48.2,35.5,27.69,North,0,0.0,0.0,61,0.00,,,0.00,WUHU216HW,2013-10-18 01:16:00,
2013-10-17 18:21:00,47.5,34.7,27.69,North,0,0.0,0.0,61,0.00,,,0.00,WUHU216HW,2013-10-18 01:21:00,
2013-10-17 18:26:00,47.0,34.7,27.69,North,0,0.0,0.0,62,0.00,,,0.00,WUHU216HW,2013-10-18 01:26:00,
2013-10-17 18:31:00,46.4,34.5,27.69,North,0,0.0,0.0,63,0.00,,,0.00,WUHU216HW,2013-10-18 01:31:00,
2013-10-17 18:36:00,46.1,34.1,27.69,North,0,0.0,0.0,63,0.00,,,0.00,WUHU216HW,2013-10-18 01:36:00,
2013-10-17 18:41:00,45.5,34.0,27.69,North,0,0.0,0.2,64,0.00,,,0.00,WUHU216HW,2013-10-18 01:41:00,
2013-10-17 18:46:00,45.0,33.6,27.69,North,0,0.0,0.2,64,0.00,,,0.00,WUHU216HW,2013-10-18 01:46:00,
2013-10-17 18:51:00,44.3,33.2,27.69,North,0,0.0,0.0,65,0.00,,,0.00,WUHU216HW,2013-10-18 01:51:00,
2013-10-17 18:56:00,43.7,33.1,27.69,North,0,0.0,0.0,66,0.00,,,0.00,WUHU216HW,2013-10-18 01:56:00,
2013-10-17 19:01:00,43.2,32.6,27.69,North,0,0.0,0.0,66,0.00,,,0.00,WUHU216HW,2013-10-18 02:01:00,
2013-10-17 19:06:00,42.8,32.7,27.69,North,0,0.0,0.0,67,0.00,,,0.00,WUHU216HW,2013-10-18 02:06:00,
2013-10-17 19:11:00,42.3,32.1,27.70,North,0,0.0,0.0,67,0.00,,,0.00,WUHU216HW,2013-10-18 02:11:00,
2013-10-17 19:16:00,41.9,31.8,27.70,North,0,0.0,0.0,67,0.00,,,0.00,WUHU216HW,2013-10-18 02:16:00,
2013-10-17 19:21:00,41.6,31.4,27.70,North,0,0.0,0.0,67,0.00,,,0.00,WUHU216HW,2013-10-18 02:21:00,
2013-10-17 19:26:00,41.0,31.3,27.70,North,0,0.0,0.0,68,0.00,,,0.00,WUHU216HW,2013-10-18 02:26:00,
2013-10-17 19:31:00,40.7,31.0,27.70,North,0,0.0,0.0,68,0.00,,,0.00,WUHU216HW,2013-10-18 02:31:00,
2013-10-17 19:36:00,40.1,30.8,27.70,North,0,0.0,0.0,69,0.00,,,0.00,WUHU216HW,2013-10-18 02:36:00,
2013-10-17 19:41:00,39.6,30.6,27.70,North,0,0.0,0.0,70,0.00,,,0.00,WUHU216HW,2013-10-18 02:41:00,
2013-10-17 19:46:00,39.2,30.6,27.70,NE,45,0.0,0.0,71,0.00,,,0.00,WUHU216HW,2013-10-18 02:46:00,
2013-10-17 19:51:00,38.9,30.2,27.70,ESE,113,0.0,0.2,71,0.00,,,0.00,WUHU216HW,2013-10-18 02:51:00,
2013-10-17 19:56:00,38.5,30.0,27.70,ESE,113,0.0,0.2,71,0.00,,,0.00,WUHU216HW,2013-10-18 02:56:00,
2013-10-17 20:01:00,38.3,29.8,27.70,ESE,113,0.0,0.0,71,0.00,,,0.00,WUHU216HW,2013-10-18 03:01:00,
2013-10-17 20:06:00,38.0,29.8,27.70,ESE,113,0.0,0.0,72,0.00,,,0.00,WUHU216HW,2013-10-18 03:06:00,
2013-10-17 20:11:00,37.8,29.6,27.70,ESE,113,0.0,0.0,72,0.00,,,0.00,WUHU216HW,2013-10-18 03:11:00,
2013-10-17 20:16:00,37.3,29.4,27.70,ESE,113,0.0,0.0,73,0.00,,,0.00,WUHU216HW,2013-10-18 03:16:00,
2013-10-17 20:21:00,37.1,29.3,27.70,ESE,113,0.0,0.0,73,0.00,,,0.00,WUHU216HW,2013-10-18 03:21:00,
2013-10-17 20:26:00,36.7,29.2,27.70,ESE,113,0.0,0.0,74,0.00,,,0.00,WUHU216HW,2013-10-18 03:26:00,
2013-10-17 20:31:00,36.4,29.2,27.70,ESE,113,0.4,0.4,75,0.00,,,0.00,WUHU216HW,2013-10-18 03:31:00,
2013-10-17 20:36:00,36.0,29.2,27.70,ESE,113,0.0,0.4,76,0.00,,,0.00,WUHU216HW,2013-10-18 03:36:00,
2013-10-17 20:41:00,35.8,29.0,27.70,ESE,113,0.0,0.4,76,0.00,,,0.00,WUHU216HW,2013-10-18 03:41:00,
2013-10-17 20:46:00,35.6,28.8,27.70,ESE,113,0.0,0.0,76,0.00,,,0.00,WUHU216HW,2013-10-18 03:46:00,
2013-10-17 20:51:00,35.5,28.6,27.70,ESE,113,0.0,0.0,76,0.00,,,0.00,WUHU216HW,2013-10-18 03:51:00,
2013-10-17 20:56:00,35.3,28.5,27.70,ESE,113,0.0,0.0,76,0.00,,,0.00,WUHU216HW,2013-10-18 03:56:00,
2013-10-17 21:01:00,35.1,28.3,27.70,ESE,113,0.0,0.0,76,0.00,,,0.00,WUHU216HW,2013-10-18 04:01:00,
2013-10-17 21:06:00,34.9,28.1,27.70,ESE,113,0.0,0.0,76,0.00,,,0.00,WUHU216HW,2013-10-18 04:06:00,
2013-10-17 21:11:00,34.6,28.4,27.70,ESE,113,0.0,0.0,78,0.00,,,0.00,WUHU216HW,2013-10-18 04:11:00,
2013-10-17 21:16:00,34.4,27.8,27.70,ESE,113,0.0,0.0,77,0.00,,,0.00,WUHU216HW,2013-10-18 04:16:00,
2013-10-17 21:21:00,34.2,27.6,27.70,ESE,113,0.0,0.0,77,0.00,,,0.00,WUHU216HW,2013-10-18 04:21:00,
2013-10-17 21:26:00,34.0,27.5,27.70,ESE,113,0.0,0.0,77,0.00,,,0.00,WUHU216HW,2013-10-18 04:26:00,
2013-10-17 21:31:00,33.8,27.6,27.71,ESE,113,0.0,0.0,78,0.00,,,0.00,WUHU216HW,2013-10-18 04:31:00,
2013-10-17 21:36:00,33.5,27.3,27.71,ESE,113,0.0,0.0,78,0.00,,,0.00,WUHU216HW,2013-10-18 04:36:00,
2013-10-17 21:41:00,33.5,27.3,27.71,ESE,113,0.0,0.0,78,0.00,,,0.00,WUHU216HW,2013-10-18 04:41:00,
2013-10-17 21:46:00,33.1,27.3,27.71,ESE,113,0.0,0.0,79,0.00,,,0.00,WUHU216HW,2013-10-18 04:46:00,
2013-10-17 21:51:00,32.8,27.0,27.71,ESE,113,0.0,0.0,79,0.00,,,0.00,WUHU216HW,2013-10-18 04:51:00,
2013-10-17 21:56:00,32.8,27.0,27.71,ESE,113,0.0,0.0,79,0.00,,,0.00,WUHU216HW,2013-10-18 04:56:00,
2013-10-17 22:01:00,32.8,27.0,27.71,ESE,113,0.0,0.0,79,0.00,,,0.00,WUHU216HW,2013-10-18 05:01:00,
2013-10-17 22:06:00,32.6,27.5,27.71,ESE,113,0.0,0.0,81,0.00,,,0.00,WUHU216HW,2013-10-18 05:06:00,
2013-10-17 22:11:00,32.2,26.8,27.71,ESE,113,0.0,0.0,80,0.00,,,0.00,WUHU216HW,2013-10-18 05:11:00,
2013-10-17 22:16:00,32.0,26.6,27.71,ESE,113,0.0,0.0,80,0.00,,,0.00,WUHU216HW,2013-10-18 05:16:00,
2013-10-17 22:21:00,32.0,26.3,27.71,ESE,113,0.0,0.0,79,0.00,,,0.00,WUHU216HW,2013-10-18 05:21:00,
2013-10-17 22:26:00,31.9,26.1,27.71,ESE,113,0.0,0.0,79,0.00,,,0.00,WUHU216HW,2013-10-18 05:26:00,
2013-10-17 22:31:00,31.9,26.1,27.71,ESE,113,0.0,0.0,79,0.00,,,0.00,WUHU216HW,2013-10-18 05:31:00,
2013-10-17 22:36:00,31.7,25.9,27.71,ESE,113,0.0,0.0,79,0.00,,,0.00,WUHU216HW,2013-10-18 05:36:00,
2013-10-17 22:41:00,31.5,25.7,27.71,ESE,113,0.0,0.0,79,0.00,,,0.00,WUHU216HW,2013-10-18 05:41:00,
2013-10-17 22:46:00,31.3,25.9,27.71,ESE,113,0.0,0.0,80,0.00,,,0.00,WUHU216HW,2013-10-18 05:46:00,
2013-10-17 22:51:00,31.1,25.4,27.71,ESE,113,0.0,0.0,79,0.00,,,0.00,WUHU216HW,2013-10-18 05:51:00,
2013-10-17 22:56:00,31.1,25.4,27.71,ESE,113,0.0,0.0,79,0.00,,,0.00,WUHU216HW,2013-10-18 05:56:00,
2013-10-17 23:01:00,31.0,25.2,27.71,ESE,113,0.0,0.0,79,0.00,,,0.00,WUHU216HW,2013-10-18 06:01:00,
2013-10-17 23:06:00,30.8,25.4,27.71,ESE,113,0.0,0.0,80,0.00,,,0.00,WUHU216HW,2013-10-18 06:06:00,
2013-10-17 23:11:00,30.6,25.5,27.71,ESE,113,0.0,0.0,81,0.00,,,0.00,WUHU216HW,2013-10-18 06:11:00,
2013-10-17 23:16:00,30.4,25.3,27.71,ESE,113,0.0,0.0,81,0.00,,,0.00,WUHU216HW,2013-10-18 06:16:00,
2013-10-17 23:21:00,30.1,25.2,27.72,SSE,158,0.0,0.7,82,0.00,,,0.00,WUHU216HW,2013-10-18 06:21:00,
2013-10-17 23:26:00,30.1,25.2,27.71,NNE,23,0.0,1.1,82,0.00,,,0.00,WUHU216HW,2013-10-18 06:26:00,
2013-10-17 23:31:00,30.1,25.6,27.71,NE,45,0.0,1.1,83,0.00,,,0.00,WUHU216HW,2013-10-18 06:31:00,
2013-10-17 23:36:00,30.1,25.2,27.71,NE,45,0.0,0.0,82,0.00,,,0.00,WUHU216HW,2013-10-18 06:36:00,
2013-10-17 23:41:00,30.2,25.4,27.71,NE,45,0.0,0.0,82,0.00,,,0.00,WUHU216HW,2013-10-18 06:41:00,
2013-10-17 23:46:00,30.1,24.9,27.71,NE,45,0.0,0.0,81,0.00,,,0.00,WUHU216HW,2013-10-18 06:46:00,
2013-10-17 23:51:00,29.9,25.0,27.71,NE,45,0.0,0.0,82,0.00,,,0.00,WUHU216HW,2013-10-18 06:51:00,
2013-10-17 23:56:00,29.9,24.8,27.71,NE,45,0.0,0.0,81,0.00,,,0.00,WUHU216HW,2013-10-18 06:56:00,